Weather History for Grove, OK

Change the Weather History Date:

Wednesday, November 20, 2013

  Actual Average (KSLG) Record (KSLG)
Temperature  
Mean Temperature 53 °F -  
Max Temperature 60 °F 55 °F 71 °F (2007)
Min Temperature 46 °F 36 °F 24 °F (2001)
Degree Days  
Heating Degree Days 12    
Growing Degree Days 3 (Base 50)    
Moisture  
Dew Point 31 °F    
Average Humidity 40    
Maximum Humidity 57    
Minimum Humidity 24    
Precipitation  
Precipitation 0.00 in - - ()
Sea Level Pressure  
Sea Level Pressure 29.98 in    
Wind  
Wind Speed 8 mph (SSE)    
Max Wind Speed 16 mph    
Max Gust Speed 23 mph    
Visibility 10 miles    
Events Rain , Thunderstorm    
Averages and records for this station are not official NWS values.
T = Trace of Precipitation, MM = Missing Value Source: NWS Daily Summary

Daily Weather History Graph

Daily Weather History Graph

Search for Another Location

Airport:

Trip Planner

Search our weather history database for the weather conditions in past years. The results will help you decide how hot, cold, wet, or windy it might be!

Date:

Astronomy

Nov. 20, 2013 Rise Set
Actual Time 7:02 AM CST 5:06 PM CST
Civil Twilight 6:34 AM CST 5:34 PM CST
Nautical Twilight 6:02 AM CST 6:06 PM CST
Astronomical Twilight 5:31 AM CST 6:37 PM CST
Moon 7:50 PM CST (11/20) 9:27 AM CST (11/20)
Length of Visible Light 11h 00m
Length of Day
10h 04m
Waning Gibbous, 91% of the Moon is Illuminated
Nov 20
Waning Gibbous
Nov 25
Last Quarter
Dec 2
New
Dec 9
First Quarter
Dec 17
Full

Hourly Weather History & Observations

Time (CST) Temp. Windchill Dew Point Humidity Pressure Visibility Wind Dir Wind Speed Gust Speed Precip Events Conditions
12:15 AM 53.6 °F - 21.2 °F 28% 30.05 in 10.0 mi SE 9.2 mph - N/A   Overcast
12:35 AM 53.6 °F - 21.2 °F 28% 30.05 in 10.0 mi SE 6.9 mph - N/A   Overcast
12:55 AM 51.8 °F - 21.2 °F 30% 30.05 in 10.0 mi SE 6.9 mph - N/A   Overcast
1:15 AM 51.8 °F - 21.2 °F 30% 30.04 in 10.0 mi SE 5.8 mph - N/A   Overcast
1:35 AM 51.8 °F - 21.2 °F 30% 30.05 in 10.0 mi SSE 5.8 mph - N/A Thunderstorm Thunderstorm
1:55 AM 53.6 °F - 17.6 °F 24% 30.05 in 10.0 mi SSE 11.5 mph - N/A   Overcast
2:15 AM 50.0 °F - 26.6 °F 40% 30.05 in 10.0 mi South 8.1 mph - N/A Rain Light Rain
2:35 AM 50.0 °F - 26.6 °F 40% 30.05 in 10.0 mi SE 5.8 mph - N/A Rain Light Rain
2:55 AM 46.4 °F 41.9 °F 32.0 °F 57% 30.04 in 3.0 mi ESE 9.2 mph - N/A Rain , Thunderstorm Heavy Thunderstorms and Rain
3:15 AM 46.4 °F 43.5 °F 32.0 °F 57% 30.03 in 10.0 mi SE 5.8 mph - N/A   Mostly Cloudy
3:35 AM 46.4 °F 42.4 °F 30.2 °F 53% 30.02 in 10.0 mi SE 8.1 mph - N/A   Overcast
3:55 AM 48.2 °F - 28.4 °F 46% 30.00 in 10.0 mi SE 9.2 mph - N/A   Mostly Cloudy
4:15 AM 48.2 °F - 28.4 °F 46% 30.00 in 10.0 mi SE 10.4 mph 17.3 mph N/A   Overcast
4:35 AM 48.2 °F - 28.4 °F 46% 30.00 in 10.0 mi SE 6.9 mph - N/A   Overcast
4:55 AM 48.2 °F - 28.4 °F 46% 30.00 in 10.0 mi SE 6.9 mph - N/A   Overcast
5:15 AM 48.2 °F - 28.4 °F 46% 29.99 in 10.0 mi SE 10.4 mph - N/A   Overcast
5:35 AM 48.2 °F - 26.6 °F 43% 29.99 in 10.0 mi SE 10.4 mph - N/A   Mostly Cloudy
5:55 AM 48.2 °F - 26.6 °F 43% 30.00 in 10.0 mi SSE 6.9 mph - N/A   Mostly Cloudy
6:15 AM 46.4 °F 42.9 °F 30.2 °F 53% 30.00 in 10.0 mi SE 6.9 mph - N/A Rain Light Rain
6:35 AM 48.2 °F - 28.4 °F 46% 30.00 in 10.0 mi SE 6.9 mph - N/A   Overcast
6:55 AM 48.2 °F - 26.6 °F 43% 30.00 in 10.0 mi SE 5.8 mph - N/A   Overcast
7:15 AM 50.0 °F - 26.6 °F 40% 30.00 in 10.0 mi SSE 9.2 mph - N/A   Overcast
7:35 AM 50.0 °F - 26.6 °F 40% 30.00 in 10.0 mi SSE 9.2 mph - N/A   Overcast
7:55 AM 50.0 °F - 26.6 °F 40% 29.99 in 10.0 mi SSE 12.7 mph 17.3 mph N/A   Overcast
8:15 AM 50.0 °F - 26.6 °F 40% 30.01 in 10.0 mi SSE 9.2 mph 16.1 mph N/A   Overcast
8:35 AM 50.0 °F - 26.6 °F 40% 30.01 in 10.0 mi SSE 10.4 mph - N/A   Overcast
8:55 AM 51.8 °F - 24.8 °F 35% 30.01 in 10.0 mi SSE 12.7 mph 17.3 mph N/A   Overcast
9:15 AM 51.8 °F - 26.6 °F 38% 30.00 in 10.0 mi SSE 11.5 mph - N/A   Overcast
9:35 AM 53.6 °F - 26.6 °F 35% 30.00 in 10.0 mi SSE 13.8 mph 21.9 mph N/A   Mostly Cloudy
9:55 AM 53.6 °F - 26.6 °F 35% 30.00 in 10.0 mi South 13.8 mph 19.6 mph N/A   Scattered Clouds
10:15 AM 55.4 °F - 28.4 °F 36% 30.00 in 10.0 mi SSE 11.5 mph 19.6 mph N/A   Clear
10:35 AM 55.4 °F - 28.4 °F 36% 30.00 in 10.0 mi South 13.8 mph 23.0 mph N/A   Clear
10:55 AM 55.4 °F - 28.4 °F 36% 29.99 in 10.0 mi SSE 15.0 mph 20.7 mph N/A   Clear
11:15 AM 59.0 °F - 30.2 °F 34% 29.98 in 10.0 mi South 15.0 mph 19.6 mph N/A   Clear
11:35 AM 59.0 °F - 30.2 °F 34% 29.97 in 10.0 mi South 11.5 mph 20.7 mph N/A   Scattered Clouds
11:55 AM 59.0 °F - 30.2 °F 34% 29.96 in 10.0 mi South 15.0 mph 20.7 mph N/A   Scattered Clouds
12:15 PM 59.0 °F - 30.2 °F 34% 29.96 in 10.0 mi South 12.7 mph 21.9 mph N/A   Mostly Cloudy
12:35 PM 59.0 °F - 32.0 °F 36% 29.95 in 10.0 mi South 16.1 mph 19.6 mph N/A   Overcast
12:55 PM 59.0 °F - 32.0 °F 36% 29.94 in 10.0 mi South 11.5 mph 19.6 mph N/A   Overcast
1:15 PM 59.0 °F - 32.0 °F 36% 29.93 in 10.0 mi South 13.8 mph 20.7 mph N/A   Overcast
1:35 PM 60.8 °F - 32.0 °F 34% 29.92 in 10.0 mi South 10.4 mph 18.4 mph N/A   Overcast
1:55 PM 60.8 °F - 32.0 °F 34% 29.91 in 10.0 mi SSE 9.2 mph - N/A   Overcast
2:15 PM 60.8 °F - 33.8 °F 36% 29.90 in 10.0 mi South 13.8 mph 18.4 mph N/A   Overcast
2:35 PM 60.8 °F - 32.0 °F 34% 29.90 in 10.0 mi South 8.1 mph - N/A   Overcast
2:55 PM 60.8 °F - 33.8 °F 36% 29.90 in 10.0 mi SSE 6.9 mph - N/A   Overcast
3:15 PM 60.8 °F - 32.0 °F 34% 29.90 in 10.0 mi SSE 8.1 mph - N/A   Overcast
3:35 PM 59.0 °F - 33.8 °F 39% 29.91 in 10.0 mi SSE 10.4 mph - N/A   Overcast
3:55 PM 59.0 °F - 32.0 °F 36% 29.91 in 10.0 mi SSE 6.9 mph - N/A   Overcast
4:15 PM 59.0 °F - 32.0 °F 36% 29.92 in 10.0 mi SSE 5.8 mph - N/A   Overcast
4:35 PM 59.0 °F - 32.0 °F 36% 29.92 in 10.0 mi South 5.8 mph - N/A   Overcast
4:55 PM 59.0 °F - 32.0 °F 36% 29.93 in 10.0 mi SSE 4.6 mph - N/A   Overcast
5:15 PM 59.0 °F - 32.0 °F 36% 29.93 in 10.0 mi SE 4.6 mph - N/A   Overcast
5:35 PM 59.0 °F - 32.0 °F 36% 29.93 in 10.0 mi ESE 3.5 mph - N/A   Overcast
5:55 PM 57.2 °F - 33.8 °F 41% 29.94 in 10.0 mi SE 4.6 mph - N/A   Overcast
6:15 PM 57.2 °F - 33.8 °F 41% 29.95 in 10.0 mi SE 3.5 mph - N/A   Overcast
6:35 PM 57.2 °F - 33.8 °F 41% 29.94 in 10.0 mi SE 3.5 mph - N/A   Overcast
6:55 PM 57.2 °F - 33.8 °F 41% 29.95 in 10.0 mi Calm Calm - N/A   Overcast
7:15 PM 59.0 °F - 35.6 °F 42% 29.95 in 10.0 mi SSE 4.6 mph - N/A   Overcast
7:35 PM 59.0 °F - 35.6 °F 42% 29.95 in 10.0 mi SE 4.6 mph - N/A   Overcast
7:55 PM 59.0 °F - 35.6 °F 42% 29.95 in 10.0 mi SE 3.5 mph - N/A   Overcast
8:15 PM 59.0 °F - 35.6 °F 42% 29.96 in 10.0 mi SE 3.5 mph - N/A   Overcast
8:35 PM 59.0 °F - 35.6 °F 42% 29.98 in 10.0 mi Calm Calm - N/A   Overcast
8:55 PM 59.0 °F - 35.6 °F 42% 29.98 in 10.0 mi Calm Calm - N/A   Overcast
9:15 PM 59.0 °F - 35.6 °F 42% 29.98 in 10.0 mi SSE 3.5 mph - N/A   Overcast
9:35 PM 59.0 °F - 35.6 °F 42% 29.96 in 10.0 mi SSE 8.1 mph - N/A   Overcast
9:55 PM 59.0 °F - 35.6 °F 42% 29.97 in 10.0 mi SSE 8.1 mph - N/A   Mostly Cloudy
10:15 PM 60.8 °F - 37.4 °F 42% 29.96 in 10.0 mi SSE 9.2 mph - N/A   Mostly Cloudy
10:35 PM 59.0 °F - 39.2 °F 48% 29.96 in 10.0 mi SSE 9.2 mph - N/A   Scattered Clouds
10:55 PM 59.0 °F - 39.2 °F 48% 29.96 in 10.0 mi South 9.2 mph - N/A   Scattered Clouds
11:15 PM 59.0 °F - 39.2 °F 48% 29.97 in 10.0 mi SSE 10.4 mph - N/A   Clear
11:35 PM 59.0 °F - 39.2 °F 48% 29.98 in 10.0 mi SSE 10.4 mph 17.3 mph N/A   Clear
11:55 PM 59.0 °F - 39.2 °F 48% 29.98 in 10.0 mi SSE 10.4 mph - N/A   Clear